Regional Weather Roundup
Issued by NWS

Home | Current Version | Previous Version | Text Only | Print | Product List | Glossary Off
Versions: 1 2 3 4 5 6 7 8 9 10 11 12 13 14 15 16 17 18 19 20 21 22 23 24 25 26 27 28 29 30 31 32 33 34 35 36 37 38 39 40 41 42 43 44 45 46 47 48 49 50

000
ASUS43 KFSD 172202
RWRSD

WEATHER ROUNDUP FOR SOUTH DAKOTA
NATIONAL WEATHER SERVICE SIOUX FALLS SD
400 PM CST WED DEC 17 2014

NOTE: "FAIR" INDICATES FEW OR NO CLOUDS BELOW 12,000 FEET WITH NO
SIGNIFICANT WEATHER AND/OR OBSTRUCTIONS TO VISIBILITY.


SDZ001>005-009-010-012>017-172300-
NORTHWEST AND NORTH CENTRAL SOUTH DAKOTA

CITY           SKY/WX    TMP DP  RH WIND       PRES   REMARKS
BUFFALO          N/A     20  16  84 SE9       29.94S WCI   9
FAITH            N/A     18  15  88 E12       30.06S WCI   5
MOBRIDGE       PTCLDY    20  12  71 S10       30.16S WCI   9
$$

SDZ012>016-024>037-041>051-057-063-072>074-172300-
SOUTHWEST AND SOUTH CENTRAL SOUTH DAKOTA

CITY           SKY/WX    TMP DP  RH WIND       PRES   REMARKS
RAPID CTY ARPT CLOUDY    23  20  88 E7        29.98R WCI  15
PIERRE         CLOUDY    18  14  84 SE15      30.16R WCI   4
CUSTER         SUNNY     34  18  52 SW9       29.84S WCI  27
ELLSWORTH AFB  CLOUDY    22  20  94 E5        29.97S FOG     WCI  16
PHILIP         CLOUDY    25  18  74 SE12      30.08R WCI  14
PINE RIDGE     CLOUDY    26  21  81 S9        29.97S WCI  17
WINNER           N/A    N/A N/A N/A MISG      30.14
$$

SDZ004>011-016>023-039-040-172300-
NORTHEAST SOUTH DAKOTA

CITY           SKY/WX    TMP DP  RH WIND       PRES   REMARKS
ABERDEEN       CLEAR     19  10  68 E8        30.27R WCI   9
WATERTOWN      CLEAR     18  12  77 W5        30.23S WCI  11
SISSETON         N/A     16  10  77 CALM      30.29S
$$

SDZ017-020-022-023-036>040-048>070-172300-
SOUTHEAST SOUTH DAKOTA

CITY           SKY/WX    TMP DP  RH WIND       PRES   REMARKS
SIOUX FALLS    MOCLDY    18   9  68 NE6       30.25S WCI  10
HURON          PTCLDY    14   9  80 E8        30.26F WCI   3
MITCHELL       MOCLDY    17  13  84 SE5       30.26S WCI  10
YANKTON        CLEAR     18  10  73 CALM      30.28R
$$

ABBREVIATIONS USED IN REMARKS
   TC - TEMPERATURE IN CELSIUS
  WCI - WIND CHILL INDEX
   HX - HEAT INDEX
  VSB - VISIBILITY



USA.gov is the U.S. government's official web portal to all federal, state and local government web resources and services.